Location: Nairn
(57.5833°N, 3.8667°W)
Time: 18:42:25
(UTC+00:00)

Tiros 1 - Pass Details

Date: 29 November 2020
Orbit: 630 x 663 km, 48.4° (Epoch: 21 January)

Event Time Altitude Azimuth Distance (km) Brightness Sun altitude
Rises 16:51:19 0° 231° (SW) 2,990 12.5 -9.0°
Reaches altitude 10° 16:54:02 10° 217° (SW) 2,076 10.9 -9.3°
Maximum altitude 16:57:48 24° 165° (SSE) 1,379 9.0 -9.7°
Drops below altitude 10° 17:01:35 10° 113° (ESE) 2,069 9.4 -10.2°
Enters shadow 17:02:35 - 106° (ESE) 2,391 9.6 -10.3°
Sets 17:04:17 0° 99° (E) 2,976 - -10.5°
